Suula — OJKZ — position and weather

sailwx.info

Track history (hours):
 
Tides and Currents Weather Stations Pressure Air Temp Water Temp Dewpoint Dewpoint Depression Visibility Wind Speed Wind Dir Waves Ship Positions

Suula

Last reported at 2014-Jul-29 10:33 UTC. Time now 2014-Jul-29 12:45 UTC.
Position N 58°04' E 019°53'.

Length 140 m; draft 6.5 m.

Type: Tanker. MMSI: 230956996.

Date/timePositionNaut miles runAvg speedWind from/ knotsBaromVisibWave heightAir tempDewpointWater temp
2014-Jul-29 10:33N 58°04' E 019°53'9513.5
2014-Jul-29 03:29N 59°30' E 021°12'1213.3
2014-Jul-29 02:33N 59°42' E 021°21'1211.5
2014-Jul-29 01:33N 59°52' E 021°30'26 0.9
2014-Jul-27 21:16N 60°18' E 021°45'912.9
2014-Jul-27 20:33N 60°24' E 021°32'  
2014-Jul-23 11:33N 59°55' E 021°38'1212.4
2014-Jul-23 10:33N 59°46' E 021°21'1212.4
2014-Jul-23 09:34N 59°35' E 021°31'1212.3
2014-Jul-23 08:34N 59°32' E 021°54'4113.8
2014-Jul-23 05:33N 59°39' E 023°15'1413.7
2014-Jul-23 04:33N 59°42' E 023°41'1413.7
2014-Jul-23 03:31N 59°46' E 024°09'2713.9
2014-Jul-23 01:33N 59°52' E 025°01'1413.9
2014-Jul-23 00:33N 59°58' E 025°26'1312.3
2014-Jul-22 23:32N 60°10' E 025°35'9 0.5
2014-Jul-22 04:28N 60°18' E 025°33'0 0.0
2014-Jul-22 03:34N 60°18' E 025°33'0 0.0
2014-Jul-22 02:30N 60°18' E 025°33'0 0.0
2014-Jul-22 01:30N 60°18' E 025°33'0 0.2
2014-Jul-22 00:33N 60°18' E 025°34'1110.5
2014-Jul-21 23:33N 60°08' E 025°35'39 5.3
2014-Jul-21 16:13N 59°45' E 024°32'1011.3
2014-Jul-21 15:23N 59°42' E 024°14'1011.3
2014-Jul-21 14:29N 59°40' E 023°55'1010.7
2014-Jul-21 13:32N 59°37' E 023°36'1210.7
2014-Jul-21 12:24N 59°33' E 023°13'910.7
2014-Jul-21 11:33N 59°30' E 022°56'1111.0
2014-Jul-21 10:34N 59°26' E 022°35'1211.4
2014-Jul-21 09:32N 59°21' E 022°15'1010.5
2014-Jul-21 08:33N 59°18' E 021°55'1212.0
2014-Jul-21 07:34N 59°15' E 021°33'1212.1
2014-Jul-21 06:33N 59°11' E 021°10'  
Track history (hours):
 
Tides and Currents Weather Stations Pressure Air Temp Water Temp Dewpoint Dewpoint Depression Visibility Wind Speed Wind Dir Waves Ship Positions

Suula

Last reported at 2014-Jul-29 10:33 UTC. Time now 2014-Jul-29 12:45 UTC.
Position N 58°04' E 019°53'.

Length 140 m; draft 6.5 m.

Type: Tanker. MMSI: 230956996.

Date/timePositionNaut miles runAvg speedWind from/ knotsBaromVisibWave heightAir tempDewpointWater temp
2014-Jul-29 10:33N 58°04' E 019°53'9513.5
2014-Jul-29 03:29N 59°30' E 021°12'1213.3
2014-Jul-29 02:33N 59°42' E 021°21'1211.5
2014-Jul-29 01:33N 59°52' E 021°30'26 0.9
2014-Jul-27 21:16N 60°18' E 021°45'912.9
2014-Jul-27 20:33N 60°24' E 021°32'  
2014-Jul-23 11:33N 59°55' E 021°38'1212.4
2014-Jul-23 10:33N 59°46' E 021°21'1212.4
2014-Jul-23 09:34N 59°35' E 021°31'1212.3
2014-Jul-23 08:34N 59°32' E 021°54'4113.8
2014-Jul-23 05:33N 59°39' E 023°15'1413.7
2014-Jul-23 04:33N 59°42' E 023°41'1413.7
2014-Jul-23 03:31N 59°46' E 024°09'2713.9
2014-Jul-23 01:33N 59°52' E 025°01'1413.9
2014-Jul-23 00:33N 59°58' E 025°26'1312.3
2014-Jul-22 23:32N 60°10' E 025°35'9 0.5
2014-Jul-22 04:28N 60°18' E 025°33'0 0.0
2014-Jul-22 03:34N 60°18' E 025°33'0 0.0
2014-Jul-22 02:30N 60°18' E 025°33'0 0.0
2014-Jul-22 01:30N 60°18' E 025°33'0 0.2
2014-Jul-22 00:33N 60°18' E 025°34'1110.5
2014-Jul-21 23:33N 60°08' E 025°35'39 5.3
2014-Jul-21 16:13N 59°45' E 024°32'1011.3
2014-Jul-21 15:23N 59°42' E 024°14'1011.3
2014-Jul-21 14:29N 59°40' E 023°55'1010.7
2014-Jul-21 13:32N 59°37' E 023°36'1210.7
2014-Jul-21 12:24N 59°33' E 023°13'910.7
2014-Jul-21 11:33N 59°30' E 022°56'1111.0
2014-Jul-21 10:34N 59°26' E 022°35'1211.4
2014-Jul-21 09:32N 59°21' E 022°15'1010.5
2014-Jul-21 08:33N 59°18' E 021°55'1212.0
2014-Jul-21 07:34N 59°15' E 021°33'1212.1
2014-Jul-21 06:33N 59°11' E 021°10'  

Dump ship's entire track history